• In United Kingdom
  • List of Countries
  • For 7 days
  • Water Temperature
  • Satellite Maps
  • Weather Map
  • Weather Widgets
  • user-avatar
    Login

    Hourly Weather Bregenz

    Today, 28 June, Wednesday

    Time Temperature Precipitation Wind Pressure Humidity
    00:00 +13°C° 0.5 mm 2 mps 641 mmHg 90%
    01:00 +13°C° 0 mm 2 mps 640 mmHg 90%
    02:00 +13°C° 0.4 mm 2 mps 640 mmHg 90%
    03:00 +12°C° 0.4 mm 2 mps 639 mmHg 91%
    04:00 +12°C° 0.4 mm 2 mps 639 mmHg 92%
    05:00 +13°C° 0.9 mm 2 mps 639 mmHg 91%
    06:00 +13°C° 0.9 mm 2 mps 639 mmHg 91%
    07:00 +14°C° 0 mm 2 mps 639 mmHg 92%
    08:00 +14°C° 1.2 mm 2 mps 639 mmHg 91%
    09:00 +14°C° 1.2 mm 2 mps 639 mmHg 90%
    10:00 +14°C° 1.2 mm 1 mps 639 mmHg 89%
    11:00 +15°C° 1.1 mm 1 mps 639 mmHg 87%
    12:00 +16°C° 1.1 mm 1 mps 639 mmHg 85%
    13:00 +16°C° 1.1 mm 1 mps 639 mmHg 83%
    14:00 +16°C° 1.8 mm 1 mps 639 mmHg 85%
    15:00 +15°C° 1.8 mm 1 mps 638 mmHg 87%
    16:00 +15°C° 1.8 mm 1 mps 638 mmHg 89%
    17:00 +14°C° 1.7 mm 1 mps 637 mmHg 91%
    18:00 +13°C° 1.7 mm 1 mps 637 mmHg 93%
    19:00 +12°C° 1.7 mm 1 mps 637 mmHg 95%
    20:00 +11°C° 0.7 mm 1 mps 636 mmHg 96%
    21:00 +10°C° 0.7 mm 1 mps 636 mmHg 96%
    22:00 +10°C° 0.7 mm 1 mps 636 mmHg 97%
    23:00 +10°C° 1.7 mm 1 mps 636 mmHg 97%

    Tomorrow, 29 June, Thursday

    Time Temperature Precipitation Wind Pressure Humidity
    00:00 +9°C° 1.7 mm 2 mps 636 mmHg 97%
    01:00 +9°C° 1.7 mm 2 mps 636 mmHg 97%
    02:00 +8°C° 1.1 mm 2 mps 636 mmHg 97%
    03:00 +8°C° 1.1 mm 2 mps 635 mmHg 97%
    04:00 +8°C° 1.1 mm 2 mps 635 mmHg 97%
    05:00 +8°C° 0.4 mm 2 mps 636 mmHg 97%
    06:00 +8°C° 0.4 mm 2 mps 636 mmHg 96%
    07:00 +9°C° 0.4 mm 2 mps 636 mmHg 95%
    08:00 +10°C° 0.2 mm 2 mps 637 mmHg 91%
    09:00 +10°C° 0.2 mm 2 mps 637 mmHg 87%
    10:00 +12°C° 0.2 mm 2 mps 637 mmHg 83%
    11:00 +13°C° 0.4 mm 2 mps 638 mmHg 79%
    12:00 +14°C° 0.4 mm 2 mps 638 mmHg 74%
    13:00 +15°C° 0.4 mm 2 mps 638 mmHg 70%
    14:00 +13°C° 1.8 mm 3 mps 638 mmHg 76%
    15:00 +12°C° 1.8 mm 3 mps 638 mmHg 83%
    16:00 +11°C° 1.8 mm 3 mps 638 mmHg 89%
    17:00 +10°C° 1.9 mm 3 mps 638 mmHg 92%
    18:00 +9°C° 1.9 mm 3 mps 638 mmHg 94%
    19:00 +8°C° 1.9 mm 2 mps 638 mmHg 96%
    20:00 +8°C° 1.7 mm 2 mps 638 mmHg 96%
    21:00 +7°C° 1.7 mm 2 mps 638 mmHg 96%
    22:00 +7°C° 1.7 mm 2 mps 639 mmHg 96%
    23:00 +7°C° 1 mm 2 mps 639 mmHg 96%

    Day after tomorrow, 30 June, Friday

    Time Temperature Precipitation Wind Pressure Humidity
    00:00 +6°C° 1 mm 2 mps 639 mmHg 96%
    01:00 +6°C° 1 mm 2 mps 639 mmHg 95%
    02:00 +6°C° 0.3 mm 2 mps 639 mmHg 95%
    03:00 +6°C° 0.3 mm 2 mps 639 mmHg 94%
    04:00 +6°C° 0.3 mm 2 mps 639 mmHg 94%
    05:00 +6°C° 0 mm 2 mps 640 mmHg 92%
    06:00 +7°C° 0 mm 2 mps 640 mmHg 90%
    07:00 +8°C° 0 mm 2 mps 641 mmHg 89%
    08:00 +10°C° 0.2 mm 2 mps 641 mmHg 81%
    09:00 +12°C° 0.2 mm 2 mps 642 mmHg 73%
    10:00 +14°C° 0.2 mm 2 mps 642 mmHg 65%
    11:00 +15°C° 0.7 mm 2 mps 642 mmHg 64%
    12:00 +15°C° 0.7 mm 2 mps 642 mmHg 63%
    13:00 +16°C° 0.7 mm 2 mps 643 mmHg 62%
    14:00 +15°C° 0.9 mm 2 mps 643 mmHg 66%
    15:00 +15°C° 0.9 mm 2 mps 643 mmHg 70%
    16:00 +15°C° 0.9 mm 2 mps 643 mmHg 74%
    17:00 +13°C° 1.2 mm 2 mps 643 mmHg 79%
    18:00 +12°C° 1.2 mm 2 mps 643 mmHg 85%
    19:00 +10°C° 1.2 mm 2 mps 642 mmHg 90%
    20:00 +9°C° 0.5 mm 2 mps 642 mmHg 92%
    21:00 +7°C° 0.5 mm 2 mps 642 mmHg 94%
    22:00 +7°C° 0.5 mm 1 mps 642 mmHg 96%
    23:00 +7°C° 0.3 mm 1 mps 642 mmHg 96%

    1 July, Saturday

    Time Temperature Precipitation Wind Pressure Humidity
    00:00 +6°C° 0.3 mm 1 mps 642 mmHg 96%
    01:00 +6°C° 0.3 mm 1 mps 642 mmHg 96%
    02:00 +6°C° 0.1 mm 1 mps 642 mmHg 96%
    03:00 +6°C° 0.1 mm 1 mps 642 mmHg 96%
    04:00 +4°C° 0.1 mm 2 mps 642 mmHg 96%
    05:00 +6°C° 0.1 mm 2 mps 642 mmHg 95%
    06:00 +7°C° 0.1 mm 2 mps 643 mmHg 93%
    07:00 +8°C° 0.1 mm 2 mps 643 mmHg 91%
    08:00 +9°C° 0.1 mm 2 mps 643 mmHg 85%
    09:00 +10°C° 0.1 mm 2 mps 644 mmHg 79%
    10:00 +11°C° 0.1 mm 3 mps 644 mmHg 72%
    11:00 +12°C° 0.2 mm 3 mps 644 mmHg 70%
    12:00 +13°C° 0.2 mm 3 mps 644 mmHg 67%
    13:00 +14°C° 0.2 mm 4 mps 645 mmHg 65%
    14:00 +13°C° 0.4 mm 4 mps 645 mmHg 70%
    15:00 +12°C° 0.4 mm 4 mps 645 mmHg 75%
    16:00 +12°C° 0.4 mm 4 mps 644 mmHg 81%
    17:00 +11°C° 0.4 mm 4 mps 645 mmHg 85%
    18:00 +10°C° 0.4 mm 4 mps 645 mmHg 88%
    19:00 +9°C° 0.4 mm 3 mps 645 mmHg 92%
    20:00 +8°C° 0.3 mm 3 mps 645 mmHg 94%
    21:00 +7°C° 0.3 mm 3 mps 645 mmHg 96%
    22:00 +6°C° 0.3 mm 2 mps 645 mmHg 98%
    23:00 +6°C° 0.8 mm 2 mps 646 mmHg 98%

    2 July, Sunday

    Time Temperature Precipitation Wind Pressure Humidity
    00:00 +6°C° 0.8 mm 2 mps 646 mmHg 98%
    01:00 +7°C° 0.8 mm 3 mps 646 mmHg 98%
    02:00 +5°C° 0.7 mm 3 mps 646 mmHg 98%
    03:00 +5°C° 0.7 mm 3 mps 646 mmHg 98%
    04:00 +5°C° 0.7 mm 3 mps 646 mmHg 98%
    05:00 +5°C° 0.7 mm 3 mps 647 mmHg 98%
    06:00 +5°C° 0.7 mm 3 mps 647 mmHg 97%
    07:00 +5°C° 0.7 mm 3 mps 647 mmHg 97%
    08:00 +7°C° 0.2 mm 3 mps 647 mmHg 95%
    09:00 +8°C° 0.2 mm 2 mps 648 mmHg 93%
    10:00 +8°C° 0.2 mm 2 mps 648 mmHg 90%
    11:00 +10°C° 0 mm 3 mps 649 mmHg 81%
    12:00 +12°C° 0 mm 3 mps 649 mmHg 72%
    13:00 +14°C° 0 mm 3 mps 650 mmHg 62%
    14:00 +14°C° 0 mm 3 mps 650 mmHg 61%
    15:00 +14°C° 0 mm 3 mps 650 mmHg 59%
    16:00 +15°C° 0 mm 4 mps 650 mmHg 57%
    17:00 +14°C° 0 mm 3 mps 650 mmHg 65%
    18:00 +12°C° 0 mm 3 mps 650 mmHg 72%
    19:00 +11°C° 0 mm 3 mps 650 mmHg 80%
    20:00 +10°C° 0.2 mm 2 mps 650 mmHg 85%
    21:00 +8°C° 0.2 mm 2 mps 650 mmHg 91%
    22:00 +7°C° 0.2 mm 1 mps 650 mmHg 96%
    23:00 +7°C° 0.1 mm 1 mps 649 mmHg 96%

    3 July, Monday

    Time Temperature Precipitation Wind Pressure Humidity
    00:00 +7°C° 0.1 mm 1 mps 649 mmHg 96%
    01:00 +6°C° 0.1 mm 1 mps 649 mmHg 96%
    02:00 +6°C° 0 mm 1 mps 649 mmHg 96%
    03:00 +6°C° 0 mm 1 mps 649 mmHg 97%
    04:00 +6°C° 0 mm 1 mps 649 mmHg 97%
    05:00 +7°C° 0 mm 1 mps 649 mmHg 93%
    06:00 +9°C° 0 mm 1 mps 650 mmHg 90%
    07:00 +11°C° 0 mm 1 mps 650 mmHg 87%
    08:00 +12°C° 0.1 mm 1 mps 651 mmHg 79%
    09:00 +14°C° 0.1 mm 1 mps 651 mmHg 72%
    10:00 +15°C° 0.1 mm 1 mps 652 mmHg 65%
    11:00 +16°C° 0 mm 1 mps 652 mmHg 60%
    12:00 +17°C° 0 mm 2 mps 652 mmHg 56%
    13:00 +18°C° 0 mm 2 mps 652 mmHg 51%
    14:00 +18°C° 0 mm 2 mps 652 mmHg 52%
    15:00 +18°C° 0 mm 2 mps 651 mmHg 53%
    16:00 +18°C° 0 mm 2 mps 651 mmHg 54%
    17:00 +17°C° 0 mm 2 mps 651 mmHg 62%
    18:00 +16°C° 0 mm 2 mps 651 mmHg 71%
    19:00 +15°C° 0 mm 1 mps 651 mmHg 79%
    20:00 +12°C° 0 mm 1 mps 650 mmHg 85%
    21:00 +10°C° 0 mm 1 mps 650 mmHg 90%
    22:00 +7°C° 0 mm 1 mps 650 mmHg 95%
    23:00 +7°C° 0 mm 1 mps 649 mmHg 95%
    Show more